This is the latest recevied weather packets stored in our database for station/object AC8JV. If no packets are shown the sender has not sent any weather packets the latest 10 day(s).
| Time | Temp. | Humidity | Pressure | Rain* | Wind** | Luminosity | Snow |
|---|---|---|---|---|---|---|---|
| 1777396213 | 11.67° C | 77% | 1013.7 hPa | 0 mm | - | - | - |
| 1777395609 | 12.22° C | 77% | 1013.6 hPa | 0 mm | - | - | - |
| 1777395009 | 12.22° C | 77% | 1013.6 hPa | 0 mm | - | - | - |
| 1777394410 | 11.67° C | 80% | 1013.5 hPa | 0 mm | - | - | - |
| 1777393808 | 11.67° C | 79% | 1013.4 hPa | 0 mm | - | - | - |
| 1777393251 | 11.67° C | 81% | 1013.4 hPa | 0 mm | - | - | - |
| 1777392600 | 11.11° C | 80% | 1013.3 hPa | 0 mm | - | - | - |
| 1777392015 | 11.11° C | 81% | 1013.1 hPa | 0 mm | - | - | - |
| 1777391406 | 11.11° C | 81% | 1013 hPa | 0 mm | - | - | - |
| 1777390812 | 10.56° C | 83% | 1013 hPa | 0 mm | - | - | - |
| 1777390199 | 10.56° C | 85% | 1013 hPa | 0 mm | - | - | - |
| 1777389599 | 10.56° C | 84% | 1012.8 hPa | 0 mm | - | - | - |
| 1777389018 | 11.11° C | 83% | 1012.6 hPa | 0 mm | - | - | - |
| 1777388406 | 11.11° C | 82% | 1012.3 hPa | 0 mm | - | - | - |
| 1777387803 | 11.11° C | 82% | 1012.2 hPa | 0 mm | - | - | - |
| 1777387204 | 11.67° C | 81% | 1011.9 hPa | 0 mm | - | - | - |
| 1777386611 | 11.67° C | 82% | 1011.7 hPa | 0 mm | - | - | - |
| 1777386033 | 11.11° C | 83% | 1011.3 hPa | 0 mm | - | - | - |
| 1777385400 | 11.11° C | 84% | 1011.2 hPa | 0 mm | - | - | - |
| 1777384817 | 11.11° C | 83% | 1011.1 hPa | 0 mm | - | - | - |
| 1777384199 | 11.11° C | 84% | 1010.9 hPa | 0 mm | - | - | - |
| 1777383609 | 10.56° C | 84% | 1010.7 hPa | 0 mm | - | - | - |
| 1777382997 | 10.56° C | 84% | 1010.7 hPa | 0 mm | - | - | - |
| 1777382407 | 10.56° C | 84% | 1010.5 hPa | 0 mm | - | - | - |
| 1777381797 | 10.56° C | 83% | 1010.3 hPa | 0 mm | - | - | - |
* Rain latest hour (hover to see other rain measurements)
** Current wind speed in m/s (hover to see current wind gust speed)